Simultaneous Nadir Overpasses (SNOs) Predictions

Prediction of SNOs between NOAA-20 and LANDSAT-8 Satellite Orbit:

Table of predicted SNOs for the next 14.0 days since TLE Epoch: 3/5/2022
Index Date (NOAA-20) Time (NOAA-20) Lat,Lon (NOAA-20) SZA (NOAA-20 ) Date (LANDSAT-8) Time (LANDSAT-8) Lat,Lon (LANDSAT-8) SZA (LANDSAT-8 ) Distance(km) Time Diff (sec)
1 03/05/2022 06:32:26 70.35, 77.78 76.43 03/05/2022 06:33:37 70.28, 78.22 76.33 18.65 71
2 03/05/2022 07:23:04 -70.05,-114.43 103.91 03/05/2022 07:23:09 -70.05,-114.47 103.90 1.62 5
3 03/05/2022 08:13:48 69.93, 53.05 75.96 03/05/2022 08:12:36 69.95, 53.04 75.99 2.28 72
4 03/07/2022 22:49:20 70.14,-166.13 75.16 03/07/2022 22:50:08 70.13,-166.11 75.14 1.29 48
5 03/07/2022 23:40:02 -70.04, 1.34 104.96 03/07/2022 23:39:38 -70.02, 1.36 104.98 2.61 24
6 03/10/2022 14:15:50 -71.08, 140.80 104.88 03/10/2022 14:16:56 -70.95, 143.34 105.12 93.24 66
7 03/10/2022 15:06:17 70.09, -50.28 74.05 03/10/2022 15:06:37 70.08, -50.30 74.04 1.15 20
8 03/10/2022 15:56:59 -69.99, 117.19 106.07 03/10/2022 15:56:07 -69.97, 117.18 106.08 1.47 52
9 03/13/2022 06:32:31 -70.20,-101.99 106.88 03/13/2022 06:33:38 -70.19,-101.92 106.90 2.98 67
10 03/13/2022 07:23:14 70.04, 65.56 72.94 03/13/2022 07:23:06 70.02, 65.49 72.93 3.08 8
11 03/13/2022 08:13:51 -69.67,-126.57 107.46 03/13/2022 08:12:39 -69.76,-127.25 107.34 27.67 72
12 03/15/2022 22:49:27 -70.15, 13.85 108.00 03/15/2022 22:50:06 -70.13, 13.87 108.03 2.52 39
13 03/15/2022 23:40:10 69.99,-178.61 71.83 03/15/2022 23:39:33 70.01,-178.65 71.85 2.38 37
14 03/18/2022 14:15:49 70.58, -38.39 71.41 03/18/2022 14:16:59 70.48, -37.37 71.26 39.46 70
15 03/18/2022 15:06:24 -70.10, 129.68 109.11 03/18/2022 15:06:34 -70.11, 129.72 109.11 1.63 10
16 03/18/2022 15:57:08 70.00, -62.86 70.78 03/18/2022 15:56:01 69.99, -62.80 70.77 2.78 67



Historial Predications of SNOs between NOAA-20 and LANDSAT-8
